カタログに戻る

COSMOS 2491 DEB

運用中PO
NORAD 44987·DEBRIS·🇷🇺 Russia

打ち上げ Dec 25, 2013 から Plesetsk Cosmodrome

Loading…

次のパス (今後24時間)

TLE

最新Source: Space-Track

元期: Sep 14, 2026, 02:32 UTC

1 44987U 13076H   26257.10597610  .00000919  00000-0  41669-2 0  9997
2 44987  82.4060  34.8152 0183430 251.8213 106.2838 12.72069996309593

AllMySatでCOSMOS 2491 DEBをリアルタイム追跡

Download on the App Store